Location: Spring Creek
(38.2870°N, 100.2160°W)
Time: 23:53:49
(UTC+00:00)

Cosmos 2233 Rocket - Pass Details

Date: 08 May 2021
Orbit: 952 x 991 km, 82.9° (Epoch: 21 June)

Event Time Altitude Azimuth Distance (km) Brightness Sun altitude
Rises 09:32:30 0° 355° (N) 3,676 7.6 -21.0°
Reaches altitude 10° 09:35:03 10° 358° (N) 2,719 6.9 -20.6°
Maximum altitude 09:41:15 69° 82° (E) 1,025 4.2 -19.7°
Drops below altitude 10° 09:47:21 10° 165° (SSE) 2,678 6.0 -18.9°
Enters shadow 09:49:05 - 167° (SSE) 3,332 6.5 -18.6°
